Simultaneous Nadir Overpasses (SNOs) Predictions

Prediction of SNOs between GOES-16 and TERRA Satellite Orbit:

Table of predicted SNOs for the next 14.0 days since TLE Epoch: 8/24/2024
Index Date Time (GOES-16) GOES-16 Lat,Lon TERRA Lat,Lon Distance(km) Time Diff (sec)
1 08/25/2024 14:39:32 -0.04, -75.21 -0.33, -73.90 149.23 80
2 08/26/2024 02:56:50 0.04, -75.21 -0.68, -78.76 403.71 80
3 08/28/2024 02:41:45 0.03, -75.22 0.20, -74.48 83.77 80
4 08/28/2024 14:58:54 -0.04, -75.23 0.81, -79.30 462.71 80
5 08/30/2024 14:43:48 -0.04, -75.25 -0.05, -75.01 26.10 80
6 09/02/2024 02:46:01 0.03, -75.27 -0.03, -75.59 36.30 80
7 09/04/2024 02:25:34 0.03, -75.31 0.86, -71.30 454.93 80
8 09/04/2024 14:48:03 -0.03, -75.33 0.11, -76.13 90.47 80
9 09/06/2024 14:27:35 -0.03, -75.37 -0.76, -71.83 401.89 80
